Temperature
20 20 20 20 19 19 19 19 19 19 19 18 18 18 18 18 18 17 17 17 17 17 17 17 17 17 17 16 16 16 16 16 15 15 15 15 15 15 15 15 15 15 15
20 20 20 20 19 19 19 19 19 19 18 18 18 18 18 18 18 17 17 17 17 17 17 17 17 16 16 16 16 16 16 16 15 15 15 15 15 15 15 15 15 15 15
20 20 19 19 19 19 19 19 19 19 18 18 18 18 18 18 18 17 17 17 17 17 17 16 16 16 16 16 16 16 16 15 15 15 15 15 15 15 15 15 15 15 14
20 20 19 19 19 19 19 19 19 18 18 18 18 18 17 17 17 17 17 17 17 17 16 16 16 16 16 16 16 16 15 15 15 15 14 14 14 14 14 14 14 14 14
19 19 19 19 19 19 19 18 18 18 18 18 18 17 17 17 17 17 17 17 17 16 16 16 16 16 16 16 15 15 15 15 15 14 14 14 14 14 14 14 14 14 14
19 19 19 19 19 19 18 18 18 18 18 17 17 17 17 17 17 17 17 16 16 16 16 16 16 16 15 15 15 15 15 15 14 14 14 14 14 14 14 13 13 13 13
19 18 18 18 18 18 18 18 18 18 17 17 17 17 17 17 16 16 16 16 16 16 16 15 15 15 15 15 15 15 14 14 14 14 14 14 14 14 13 13 13 13 13
18 18 18 18 18 18 17 17 17 17 17 17 17 17 16 16 16 16 16 16 16 16 15 15 15 15 15 15 14 14 14 14 14 14 14 13 13 13 13 13 13 13 13
17 17 17 17 17 17 17 17 17 17 17 16 16 16 16 16 16 16 15 15 15 15 15 15 14 14 14 14 14 14 14 14 13 13 13 13 13 13 13 12 12 12 12
17 17 17 17 17 17 17 16 16 16 16 16 16 16 16 15 15 15 15 15 15 14 14 14 14 14 14 14 13 13 13 13 13 13 13 13 13 12 12 12 12 12 12
17 16 16 17 16 16 16 16 16 16 16 16 16 15 15 15 15 15 15 14 14 14 14 14 14 13 13 13 13 13 13 13 13 13 12 12 12 12 12 11 11 11 11
16 16 16 16 16 16 16 16 16 16 15 15 15 15 15 14 14 14 14 14 14 14 13 13 13 13 13 13 13 13 12 12 12 12 12 12 12 11 11 11 11 11 11
16 16 15 15 15 15 15 15 15 15 15 14 14 14 14 14 14 14 14 13 13 13 13 13 12 12 12 12 12 12 12 12 12 12 11 11 11 11 11 11 11 11 11
15 15 15 15 15 14 14 14 14 14 14 14 14 14 14 14 13 13 13 13 13 12 12 12 12 12 12 12 11 11 11 11 11 11 11 11 11 11 11 11 11 10 10
15 15 14 14 14 14 14 14 14 14 13 13 13 13 13 13 13 13 13 12 12 12 12 12 11 11 11 11 11 11 11 11 11 10 10 10 10 10 10 10 10 10 10
15 14 14 14 14 14 13 13 13 13 13 13 13 13 13 13 13 12 12 12 12 12 12 11 11 11 11 11 11 11 11 11 10 10 10 10 10 10 10 10 9 9 9
14 14 14 14 13 13 13 13 13 13 12 13 13 12 12 12 12 12 12 12 11 11 11 11 11 11 10 10 10 10 10 10 10 10 10 10 10 9 9 9 9 9 9
14 14 13 13 13 12 12 12 12 12 12 12 12 12 12 12 12 12 11 11 11 11 11 11 11 10 10 10 10 10 10 10 10 10 10 9 9 9 9 9 9 9 9
13 13 13 13 12 12 12 12 12 12 11 11 11 11 11 11 11 11 11 11 11 11 11 11 10 10 10 10 10 10 10 10 10 9 9 9 9 9 9 9 8 8 8
13 13 12 12 12 12 12 11 11 11 11 11 11 11 11 11 11 11 11 11 11 10 10 10 10 10 10 10 10 9 9 9 9 9 9 9 9 8 8 8 8 8 8
13 12 12 12 12 11 11 11 11 11 11 11 11 11 11 11 11 11 10 10 10 10 10 10 10 10 10 9 9 9 9 9 9 9 9 9 8 8 8 8 8 8 7
12 12 12 12 12 11 11 11 11 11 11 11 10 10 10 10 10 10 10 10 10 10 10 10 10 10 9 9 9 9 9 9 9 8 8 8 8 8 8 8 7 7 7
12 12 12 12 11 11 11 11 11 11 11 10 10 10 10 10 10 10 10 10 10 10 10 10 10 9 9 9 9 9 9 9 9 9 8 8 8 8 8 8 7 7 7
11 11 11 11 11 11 11 11 11 10 10 10 10 10 10 10 10 10 10 10 10 10 10 9 9 9 9 9 9 9 9 9 8 8 8 8 8 8 8 7 7 7 7
11 11 11 11 11 11 11 10 10 10 10 10 10 10 10 10 10 10 10 10 10 10 9 9 9 9 9 9 9 9 9 8 8 8 8 8 8 8 8 7 7 7 7
11 11 10 10 10 10 10 10 10 10 10 10 10 10 10 10 10 10 9 9 9 9 9 9 9 9 9 9 9 9 8 8 8 8 8 8 8 8 7 7 7 7 6
Wind_Speed
7 7 8 8 8 7 7 8 7 6 6 7 7 6 6 6 6 5 5 5 5 5 4 5 5 4 3 3 3 3 3 3 4 4 2 2 2 3 3 3 3 3 3
7 7 8 7 7 8 8 8 7 7 7 7 7 7 7 6 6 6 6 6 6 6 6 5 5 3 4 3 3 4 4 4 4 4 3 2 3 3 3 3 3 2 2
6 8 8 8 8 9 9 8 7 7 7 7 7 7 7 6 6 7 7 6 6 6 6 6 5 4 4 4 4 4 3 3 3 4 4 3 3 2 2 2 3 2 2
5 6 7 8 8 9 8 7 7 7 8 7 7 7 7 7 6 6 6 6 5 5 5 5 5 5 6 5 4 4 3 3 3 3 3 3 3 2 2 2 2 2 2
5 6 8 7 7 7 7 7 7 7 8 7 7 6 6 6 6 6 6 6 5 4 4 4 5 5 6 6 5 4 4 3 3 3 3 3 3 2 3 2 3 2 2
5 6 6 6 6 7 6 6 6 7 6 6 7 7 7 6 6 7 6 5 5 5 4 4 3 4 5 5 6 6 6 5 5 4 4 4 5 4 3 3 2 1 2
4 4 5 6 6 7 7 6 6 6 5 5 6 6 6 6 7 7 8 6 5 5 5 4 3 2 2 3 2 2 3 4 6 5 5 6 5 5 4 3 3 3 3
3 4 4 4 5 5 5 5 5 4 4 4 4 5 5 4 6 6 7 5 4 4 4 4 3 3 2 2 2 1 1 2 3 3 4 5 5 4 4 4 3 2 2
3 3 4 4 4 4 4 4 3 3 3 4 4 4 4 4 5 6 5 3 3 3 3 3 3 3 3 3 3 2 1 1 1 1 2 2 2 3 4 2 2 1 1
3 3 2 3 4 4 4 4 3 3 3 3 3 3 4 4 5 6 6 4 3 2 1 2 3 3 3 4 4 3 2 2 1 1 1 2 1 2 3 3 4 3 1
2 1 1 2 3 4 4 3 3 3 3 3 3 3 3 4 4 6 6 4 4 4 3 2 2 2 3 3 3 3 3 2 1 1 1 1 2 2 1 0 2 2 2
1 0 1 1 2 2 3 3 3 4 4 4 3 2 1 2 3 3 5 5 5 4 3 2 2 3 3 3 3 2 2 3 2 2 2 1 1 1 1 1 1 2 3
1 0 0 1 1 1 3 3 3 3 3 3 3 2 2 1 1 3 3 4 5 3 3 3 4 4 4 3 3 3 3 2 2 2 0 1 1 1 1 1 1 1 1
1 0 0 0 1 1 2 2 3 3 3 3 3 3 2 1 1 1 2 3 3 3 2 3 5 5 4 3 3 2 1 1 2 1 1 1 1 1 1 1 1 1 1
1 1 1 1 1 2 2 1 2 2 4 4 3 3 3 2 3 4 4 3 3 3 4 3 2 2 2 2 1 1 1 1 1 1 1 0 0 1 1 1 1 1 1
2 1 1 2 2 2 2 2 3 1 1 2 4 4 3 4 4 4 5 5 5 6 5 3 2 2 2 2 2 1 1 1 1 1 1 1 1 1 1 1 1 0 1
3 2 2 2 2 2 2 2 1 3 4 3 1 2 3 3 3 5 5 5 5 7 4 3 3 3 3 3 2 2 2 2 2 2 2 1 1 1 0 0 0 1 1
3 3 3 2 2 2 2 2 2 2 1 2 2 1 1 2 3 4 6 6 3 3 3 3 3 3 3 3 3 3 2 2 2 2 2 2 2 1 1 1 1 1 2
2 2 2 2 2 2 2 2 2 2 2 1 1 2 2 2 3 4 5 3 4 4 4 4 4 3 3 4 3 3 3 2 2 2 2 2 2 2 2 2 2 1 1
2 3 3 2 2 2 1 1 1 2 2 1 1 1 1 1 2 2 2 2 3 3 4 4 3 3 4 4 4 3 3 2 2 2 2 2 2 2 3 2 2 2 2
2 3 3 3 2 2 2 2 2 2 2 2 2 2 3 3 3 3 3 3 3 4 4 4 3 4 4 4 4 4 4 3 3 3 3 3 2 2 2 2 2 2 2
2 2 3 3 2 2 2 2 2 2 2 2 2 2 4 3 3 3 3 4 4 4 4 4 4 4 4 4 4 4 4 4 3 3 3 3 3 3 2 2 2 2 2
2 2 2 2 2 3 2 2 2 2 3 3 3 2 2 3 3 4 4 4 4 4 4 4 4 4 3 4 4 4 5 5 5 5 4 4 3 3 3 3 3 3 3
3 3 2 2 2 2 2 2 2 3 3 3 3 3 3 3 4 4 4 3 3 3 3 3 4 5 5 4 4 4 5 6 6 5 6 5 4 3 3 3 3 4 4
2 2 2 2 2 2 2 2 3 3 3 3 3 3 3 3 3 3 3 2 2 2 3 3 3 4 4 5 4 5 5 6 6 5 5 5 5 4 4 4 3 3 3
2 2 2 2 2 3 3 3 3 3 3 3 3 3 3 3 3 3 2 2 2 2 2 2 3 4 4 4 5 5 5 5 5 6 5 4 4 4 4 4 4 4 4
Wind_Direction
200 204 209 208 207 205 208 214 214 213 209 213 214 211 213 215 212 205 215 214 218 227 228 224 232 225 219 219 212 211 215 211 241 269 266 278 279 291 311 311 300 291 291
201 202 209 208 205 209 215 217 211 214 215 214 213 213 216 216 210 209 219 219 217 222 224 220 229 222 220 221 217 219 220 215 222 255 272 270 265 278 287 291 300 291 284
201 203 208 210 211 216 218 217 210 210 214 212 209 215 217 215 211 213 215 217 217 219 217 216 223 215 227 227 220 221 223 220 217 233 262 261 262 273 284 290 295 301 301
212 208 212 216 219 223 221 216 213 211 212 211 211 215 215 213 211 209 208 212 215 218 217 218 220 219 225 224 222 220 213 211 210 225 251 264 264 269 255 263 285 289 301
216 216 220 220 218 220 219 217 212 210 216 214 211 215 211 209 211 205 202 204 206 213 219 225 229 223 223 222 221 214 207 212 216 232 247 260 261 257 255 251 262 285 292
222 226 224 217 215 214 216 215 211 211 214 209 208 208 211 215 204 197 197 203 201 205 216 233 237 226 228 224 219 211 203 208 215 223 235 243 250 247 246 244 238 251 273
233 229 222 215 213 213 213 213 216 216 213 208 207 202 208 212 199 195 197 199 203 207 211 220 232 231 220 219 212 215 222 222 213 212 226 237 241 234 224 233 239 241 248
228 225 221 217 217 215 210 213 220 215 203 204 206 203 204 213 195 197 199 195 194 200 205 209 214 226 223 190 189 216 253 266 244 222 222 236 240 228 215 219 221 224 257
238 233 219 207 204 202 205 207 208 196 197 201 197 190 194 210 192 187 182 190 196 209 216 213 209 216 212 168 166 193 234 284 286 199 206 226 215 186 165 152 159 176 251
258 251 231 196 184 191 198 198 197 188 200 192 190 187 189 200 186 176 173 183 192 208 215 220 212 209 200 174 175 182 209 251 260 356 31 32 71 100 142 169 174 177 211
268 243 218 190 184 192 194 194 183 174 175 179 189 197 189 188 187 178 175 185 188 191 202 213 218 185 173 176 174 184 213 214 156 110 74 55 63 59 61 151 187 188 206
296 268 261 227 208 201 175 182 177 168 170 179 186 208 217 195 191 183 173 177 179 182 196 202 188 150 137 141 151 144 130 117 103 91 73 51 38 356 327 306 241 228 231
72 25 327 310 229 172 168 164 164 164 173 184 184 201 228 212 178 167 166 168 167 175 182 164 149 134 124 123 126 126 125 121 116 123 116 295 287 289 320 341 328 286 267
135 122 144 146 154 127 136 150 159 174 181 185 188 199 208 194 187 173 163 156 154 156 155 127 116 107 107 105 99 99 122 140 151 171 235 279 307 0 17 7 339 342 335
148 148 134 128 126 114 102 116 176 205 200 193 199 190 186 201 209 184 170 171 171 161 136 115 104 108 114 107 106 115 138 147 171 203 206 216 347 1 349 346 334 356 336
151 147 137 132 126 131 120 70 48 72 120 177 183 184 199 200 188 178 174 173 163 147 129 134 154 167 173 178 185 192 185 195 209 201 195 194 213 247 316 358 10 359 329
157 160 143 136 138 144 141 139 90 34 46 51 99 154 181 188 185 180 175 162 151 145 143 170 184 193 201 202 203 203 212 215 203 190 190 197 197 200 216 297 312 315 311
144 148 150 155 155 153 156 163 158 148 96 20 29 75 144 170 174 166 152 131 136 158 175 193 205 206 205 205 207 207 209 200 191 194 198 200 194 188 196 238 259 268 276
149 154 154 155 154 157 156 145 145 148 154 150 55 24 56 95 110 137 145 159 179 195 203 208 212 209 209 208 207 205 204 204 204 200 206 209 203 195 212 237 255 271 266
166 163 156 154 150 149 154 158 167 167 174 181 194 197 119 107 120 141 169 187 194 204 208 215 222 220 213 206 203 200 203 210 208 207 215 216 212 207 218 231 239 248 258
173 167 160 158 169 171 181 190 193 190 195 208 230 228 193 182 192 197 200 204 207 212 218 219 221 221 216 210 205 201 202 210 211 212 217 217 213 218 226 228 232 241 260
163 164 172 179 183 183 193 200 201 206 214 222 242 234 200 200 207 214 220 222 221 220 218 215 219 220 217 213 208 204 205 213 219 218 216 214 213 219 225 234 242 245 252
159 161 171 181 187 186 196 212 213 217 224 228 229 227 216 221 224 225 229 235 235 231 221 208 211 218 217 212 207 205 209 216 220 214 208 208 212 218 224 233 239 244 247
176 177 184 193 191 195 212 230 231 227 228 230 229 230 229 230 234 237 236 233 229 226 216 210 213 215 216 214 213 214 218 221 217 211 205 205 212 219 221 231 237 240 243
181 185 198 208 217 224 230 242 244 239 236 236 232 236 237 234 238 238 236 226 215 216 217 212 209 213 219 220 219 222 226 224 217 212 205 207 214 218 221 227 232 239 243
200 210 226 231 234 235 234 240 243 239 238 239 235 236 230 229 231 227 220 211 207 212 215 213 211 211 219 225 231 233 230 223 216 212 207 211 219 225 224 228 231 232 238
Height
1513 1516 1518 1519 1521 1523 1524 1526 1527 1529 1530 1531 1533 1534 1534 1535 1536 1536 1536 1537 1538 1539 1539 1540 1540 1540 1540 1539 1539 1539 1539 1539 1537 1537 1537 1537 1536 1536 1535 1534 1533 1532 1531
1510 1512 1514 1515 1517 1519 1520 1522 1523 1525 1526 1528 1529 1529 1530 1531 1532 1532 1533 1534 1535 1535 1536 1536 1536 1537 1536 1536 1536 1536 1535 1535 1534 1533 1533 1533 1533 1532 1532 1531 1530 1529 1528
1506 1508 1509 1511 1513 1514 1516 1518 1519 1521 1522 1523 1524 1525 1526 1527 1528 1529 1530 1530 1531 1532 1532 1532 1533 1533 1532 1532 1532 1532 1531 1531 1530 1530 1529 1529 1528 1528 1527 1527 1526 1525 1524
1502 1504 1505 1506 1508 1510 1512 1513 1515 1516 1517 1519 1520 1521 1521 1523 1524 1525 1525 1526 1527 1527 1528 1528 1528 1528 1528 1528 1528 1528 1527 1527 1526 1526 1525 1525 1524 1524 1524 1523 1522 1521 1520
1499 1500 1500 1502 1504 1506 1507 1509 1510 1511 1512 1514 1515 1516 1517 1518 1519 1520 1521 1522 1522 1522 1523 1524 1524 1524 1524 1524 1524 1524 1523 1523 1522 1522 1521 1520 1520 1520 1519 1519 1518 1517 1517
1495 1496 1497 1498 1500 1501 1503 1504 1505 1506 1507 1508 1509 1510 1511 1513 1514 1515 1517 1517 1517 1517 1518 1519 1519 1519 1519 1520 1519 1519 1519 1519 1518 1518 1517 1516 1515 1515 1515 1515 1514 1513 1512
1491 1492 1493 1494 1495 1496 1498 1500 1501 1501 1502 1502 1504 1505 1506 1507 1509 1510 1511 1512 1512 1513 1513 1514 1514 1514 1515 1515 1515 1515 1515 1514 1514 1514 1512 1512 1511 1511 1511 1510 1510 1510 1509
1487 1488 1489 1490 1491 1492 1493 1495 1496 1497 1498 1498 1499 1500 1502 1503 1504 1506 1506 1507 1507 1508 1508 1509 1510 1510 1511 1511 1511 1511 1510 1510 1510 1509 1509 1508 1508 1507 1507 1507 1507 1507 1506
1484 1484 1485 1486 1486 1488 1489 1490 1491 1492 1493 1494 1495 1496 1497 1498 1500 1501 1502 1501 1502 1503 1504 1505 1506 1506 1506 1506 1507 1507 1506 1506 1506 1505 1505 1504 1504 1504 1504 1504 1504 1504 1503
1481 1481 1481 1482 1482 1484 1485 1486 1486 1487 1489 1490 1491 1492 1493 1494 1494 1496 1497 1497 1498 1498 1499 1500 1501 1502 1502 1502 1503 1503 1503 1503 1502 1502 1502 1501 1501 1501 1501 1501 1501 1501 1501
1478 1478 1478 1478 1479 1480 1481 1482 1483 1484 1486 1486 1487 1488 1489 1489 1491 1492 1493 1493 1493 1494 1495 1496 1497 1498 1499 1499 1500 1500 1500 1500 1499 1499 1499 1498 1499 1499 1499 1499 1498 1499 1499
1476 1475 1475 1475 1476 1477 1478 1479 1480 1480 1481 1483 1484 1485 1486 1486 1487 1488 1489 1490 1491 1491 1492 1493 1494 1495 1495 1496 1496 1496 1497 1497 1497 1496 1496 1496 1496 1496 1496 1496 1496 1497 1497
1473 1473 1473 1473 1473 1474 1474 1475 1476 1477 1478 1480 1481 1482 1483 1483 1484 1485 1486 1487 1488 1489 1490 1491 1492 1492 1492 1492 1493 1494 1494 1494 1494 1494 1494 1494 1494 1493 1493 1494 1494 1494 1494
1471 1471 1471 1471 1471 1471 1472 1472 1474 1475 1476 1477 1478 1479 1480 1481 1482 1483 1483 1485 1486 1487 1487 1488 1489 1490 1490 1490 1491 1492 1492 1493 1493 1493 1493 1492 1492 1492 1492 1492 1492 1492 1491
1469 1469 1469 1469 1469 1469 1470 1471 1472 1473 1474 1475 1475 1476 1477 1478 1479 1480 1481 1482 1483 1484 1485 1485 1486 1487 1487 1488 1489 1490 1491 1491 1491 1491 1491 1490 1490 1490 1490 1490 1490 1489 1488
1467 1467 1467 1467 1468 1468 1468 1469 1470 1471 1472 1472 1473 1474 1475 1476 1477 1478 1479 1480 1481 1481 1482 1482 1484 1484 1485 1485 1486 1487 1488 1489 1489 1489 1489 1489 1488 1488 1488 1488 1487 1487 1486
1466 1466 1466 1466 1467 1467 1467 1468 1468 1469 1470 1470 1471 1472 1473 1474 1475 1476 1477 1477 1478 1479 1479 1480 1481 1481 1482 1483 1484 1485 1485 1486 1487 1486 1486 1486 1486 1486 1486 1485 1485 1485 1484
1466 1465 1465 1466 1466 1467 1467 1467 1467 1467 1467 1468 1470 1471 1471 1472 1473 1474 1474 1475 1475 1476 1477 1477 1478 1479 1480 1481 1481 1482 1482 1483 1483 1484 1484 1484 1484 1484 1483 1483 1483 1482 1482
1464 1464 1465 1465 1465 1466 1466 1466 1466 1466 1467 1467 1468 1469 1470 1470 1471 1472 1472 1472 1472 1473 1474 1475 1476 1476 1477 1477 1478 1479 1479 1480 1480 1481 1481 1481 1481 1481 1481 1481 1480 1480 1480
1463 1463 1464 1464 1464 1465 1465 1465 1465 1465 1466 1466 1466 1467 1468 1468 1468 1469 1470 1470 1471 1471 1472 1472 1473 1473 1474 1475 1475 1476 1476 1477 1478 1478 1478 1478 1478 1478 1478 1478 1478 1478 1477
1461 1462 1462 1463 1463 1463 1464 1464 1464 1464 1464 1465 1465 1466 1467 1467 1467 1468 1468 1468 1469 1469 1470 1470 1470 1471 1472 1472 1473 1473 1473 1474 1474 1475 1475 1475 1476 1476 1475 1475 1475 1475 1475
1460 1460 1461 1461 1461 1462 1462 1463 1463 1463 1463 1464 1464 1465 1465 1465 1466 1466 1466 1466 1467 1467 1468 1468 1468 1469 1469 1470 1470 1470 1471 1471 1471 1472 1472 1472 1473 1473 1473 1472 1472 1472 1472
1458 1459 1459 1460 1460 1460 1461 1461 1462 1462 1462 1462 1463 1463 1463 1463 1464 1464 1464 1464 1465 1465 1465 1466 1466 1466 1467 1467 1467 1468 1468 1468 1468 1468 1469 1469 1469 1470 1469 1469 1469 1469 1468
1457 1457 1458 1458 1458 1459 1459 1459 1459 1460 1460 1461 1461 1461 1461 1461 1461 1461 1462 1462 1462 1462 1462 1463 1463 1463 1464 1464 1464 1464 1465 1465 1465 1466 1466 1466 1466 1466 1466 1466 1465 1465 1465
1455 1455 1456 1456 1456 1456 1457 1457 1457 1457 1458 1458 1458 1458 1459 1459 1459 1459 1459 1459 1459 1459 1459 1460 1460 1460 1461 1461 1461 1462 1462 1462 1462 1463 1463 1463 1463 1463 1462 1462 1462 1461 1461
1454 1454 1454 1454 1454 1454 1454 1454 1455 1455 1455 1456 1456 1456 1456 1456 1456 1456 1456 1456 1456 1456 1456 1457 1457 1457 1458 1458 1458 1459 1459 1459 1459 1459 1459 1459 1459 1459 1459 1458 1458 1457 1457